Location: Unspecified
(0.0000°N, 0.0000°E)
Time: 10:14:05
(UTC+00:00)

Vanguard 3 - Visible Passes

Search period start: 24 August 2016 00:00
Search period end: 03 September 2016 00:00
Orbit: 510 x 3265 km, 33.3° (Epoch: 23 August)

Date Brightness Start Highest point End Pass type
(mag) Time Alt. Az. Time Alt. Az. Time Alt. Az.
24 Aug 11.1 02:50:47 17° S 02:51:54 17° S 03:02:34 10° SE visible
24 Aug 10.8 05:01:07 10° SSW 05:14:01 23° SSE 05:23:35 10° ESE visible
24 Aug 9.2 18:35:43 10° NNW 18:41:35 28° NE 18:49:22 13° E visible
24 Aug 8.8 20:45:26 10° WNW 20:53:59 77° WSW 20:53:59 77° WSW visible
25 Aug 11.3 01:41:04 15° SSE 01:41:04 15° SSE 01:45:04 10° SSE visible
25 Aug 11.1 03:45:38 12° SSW 03:56:07 19° S 04:06:32 10° SE visible
25 Aug 8.5 19:32:42 10° NW 19:39:59 66° NE 19:44:52 38° ESE visible
25 Aug 10.0 21:44:46 10° W 21:49:29 31° WSW 21:49:29 31° WSW visible
26 Aug 11.2 02:35:58 18° S 02:37:13 18° S 02:48:18 10° SE visible
26 Aug 10.8 04:44:30 10° SSW 04:59:09 27° SSE 05:09:52 10° ESE visible
26 Aug 8.9 18:20:52 10° NNW 18:26:27 32° NE 18:35:29 10° ESE visible
26 Aug 8.9 20:30:58 10° WNW 20:39:16 65° SSW 20:40:26 62° S visible
27 Aug 11.4 01:26:21 14° SSE 01:26:21 14° SSE 01:29:45 10° SSE visible
27 Aug 11.1 03:30:56 14° SSW 03:41:19 22° SSE 03:52:50 10° ESE visible
27 Aug 8.2 19:18:06 10° NW 19:24:50 79° NE 19:31:24 29° ESE visible
27 Aug 10.0 21:30:37 10° W 21:36:02 31° WSW 21:36:02 31° WSW visible
28 Aug 11.2 02:21:20 19° S 02:22:30 19° S 02:34:11 10° SE visible
28 Aug 10.7 04:27:56 10° SSW 04:44:07 32° SSE 04:55:54 10° E visible
28 Aug 9.0 20:16:37 10° WNW 20:24:15 53° SSW 20:27:03 45° S visible
29 Aug 11.4 01:11:49 13° SSE 01:11:49 13° SSE 01:14:37 10° SE visible
29 Aug 11.0 03:16:25 17° SSW 03:26:21 25° SSE 03:38:58 10° ESE visible
29 Aug 10.2 05:27:54 10° SW 05:45:39 51° SSE 05:56:50 10° ENE visible
29 Aug 8.1 19:03:35 10° WNW 19:09:49 85° SW 19:18:05 19° SE visible
29 Aug 10.0 21:16:40 10° W 21:22:44 28° SW 21:22:44 28° SW visible
30 Aug 11.1 02:06:57 20° S 02:07:42 20° SSE 02:20:05 10° SE visible
30 Aug 10.6 04:11:33 10° SW 04:28:53 38° SSE 04:41:43 10° E visible
30 Aug 9.2 20:02:28 10° W 20:09:24 42° SSW 20:13:47 31° SSE visible
31 Aug 11.5 00:57:34 12° SE 00:57:34 12° SE 00:59:41 10° SE visible
31 Aug 10.9 03:02:10 21° SSW 03:11:12 28° SSE 03:24:55 10° ESE visible
31 Aug 10.1 05:11:22 10° SW 05:30:14 60° SSE 05:42:20 10° ENE visible
31 Aug 8.2 18:49:12 10° WNW 18:54:56 67° SSW 19:04:51 11° SE visible
31 Aug 10.1 21:02:59 10° WSW 21:09:30 24° SSW 21:09:30 24° SSW visible
01 Sep 11.1 01:52:52 22° SSE 01:52:52 22° SSE 02:05:57 10° ESE visible
01 Sep 10.5 03:57:29 15° SSW 04:13:28 44° SSE 04:27:20 10° E visible
01 Sep 9.4 19:48:29 10° W 19:54:42 32° SSW 20:00:32 20° SSE visible
02 Sep 11.5 00:43:39 11° SE 00:43:39 11° SE 00:44:58 10° SE visible
02 Sep 10.8 02:48:16 26° S 02:55:53 32° SSE 03:10:39 10° E visible
02 Sep 10.0 04:54:56 10° SW 05:14:37 69° SE 05:27:39 10° ENE visible
02 Sep 8.4 18:34:56 10° WNW 18:40:12 50° SSW 18:49:16 10° SE visible
02 Sep 10.3 20:49:36 10° SW 20:55:37 19° SSW 20:56:13 18° S visible
